EN

Hourly Weather Abaigar

Today, 29 November, Sunday

Time Temperature Precipitation Wind Pressure Humidity
00:00 +7°C° 0 mm 0 mps 703 mmHg 86%
01:00 +7°C° 0 mm 0 mps 703 mmHg 87%
02:00 +7°C° 0 mm 1 mps 704 mmHg 87%
03:00 +7°C° 0 mm 1 mps 704 mmHg 88%
04:00 +7°C° 0 mm 1 mps 704 mmHg 88%
05:00 +6°C° 0 mm 0 mps 704 mmHg 88%
06:00 +6°C° 0 mm 0 mps 705 mmHg 88%
07:00 +7°C° 0 mm 0 mps 705 mmHg 84%
08:00 +8°C° 0 mm 0 mps 706 mmHg 81%
09:00 +8°C° 0 mm 0 mps 706 mmHg 78%
10:00 +11°C° 0 mm 1 mps 707 mmHg 72%
11:00 +12°C° 0 mm 1 mps 707 mmHg 67%
12:00 +14°C° 0 mm 1 mps 707 mmHg 60%
13:00 +14°C° 0 mm 1 mps 707 mmHg 59%
14:00 +14°C° 0 mm 1 mps 707 mmHg 59%
15:00 +14°C° 0 mm 1 mps 707 mmHg 58%
16:00 +12°C° 0 mm 1 mps 707 mmHg 64%
17:00 +10°C° 0 mm 0 mps 707 mmHg 71%
18:00 +8°C° 0 mm 0 mps 707 mmHg 78%
19:00 +8°C° 0 mm 0 mps 708 mmHg 78%
20:00 +8°C° 0 mm 0 mps 708 mmHg 78%
21:00 +9°C° 0 mm 1 mps 709 mmHg 78%
22:00 +8°C° 0 mm 1 mps 709 mmHg 79%
23:00 +8°C° 0 mm 1 mps 709 mmHg 79%

Tomorrow, 30 November, Monday

Time Temperature Precipitation Wind Pressure Humidity
00:00 +8°C° 0 mm 1 mps 709 mmHg 79%
01:00 +8°C° 0 mm 1 mps 709 mmHg 79%
02:00 +8°C° 0 mm 1 mps 710 mmHg 79%
03:00 +7°C° 0 mm 1 mps 710 mmHg 79%
04:00 +7°C° 0 mm 1 mps 710 mmHg 80%
05:00 +7°C° 0 mm 1 mps 710 mmHg 80%
06:00 +7°C° 0 mm 1 mps 710 mmHg 81%
07:00 +8°C° 0 mm 1 mps 711 mmHg 78%
08:00 +9°C° 0 mm 1 mps 711 mmHg 75%
09:00 +9°C° 0 mm 1 mps 712 mmHg 73%
10:00 +11°C° 0 mm 1 mps 712 mmHg 67%
11:00 +12°C° 0 mm 1 mps 712 mmHg 62%
12:00 +14°C° 0 mm 1 mps 712 mmHg 57%
13:00 +14°C° 0 mm 2 mps 712 mmHg 58%
14:00 +14°C° 0 mm 2 mps 712 mmHg 59%
15:00 +14°C° 0 mm 2 mps 712 mmHg 60%
16:00 +12°C° 0 mm 2 mps 712 mmHg 68%
17:00 +9°C° 0 mm 2 mps 712 mmHg 76%
18:00 +8°C° 0 mm 2 mps 712 mmHg 85%
19:00 +7°C° 0 mm 2 mps 712 mmHg 87%
20:00 +6°C° 0 mm 2 mps 712 mmHg 89%
21:00 +6°C° 0 mm 2 mps 713 mmHg 90%
22:00 +5°C° 0 mm 2 mps 713 mmHg 90%
23:00 +5°C° 0 mm 2 mps 713 mmHg 90%

Day after tomorrow, 1 December, Tuesday

Time Temperature Precipitation Wind Pressure Humidity
00:00 +5°C° 0 mm 2 mps 713 mmHg 90%
01:00 +4°C° 0 mm 2 mps 712 mmHg 88%
02:00 +4°C° 0 mm 2 mps 712 mmHg 86%
03:00 +2°C° 0 mm 3 mps 712 mmHg 84%
04:00 +2°C° 0 mm 3 mps 712 mmHg 81%
05:00 +2°C° 0 mm 3 mps 712 mmHg 78%
06:00 +2°C° 0 mm 3 mps 712 mmHg 75%
07:00 +3°C° 0 mm 3 mps 712 mmHg 71%
08:00 +4°C° 0 mm 3 mps 712 mmHg 67%
09:00 +5°C° 0 mm 3 mps 712 mmHg 63%
10:00 +7°C° 0 mm 3 mps 712 mmHg 59%
11:00 +9°C° 0 mm 3 mps 712 mmHg 54%
12:00 +10°C° 0 mm 3 mps 712 mmHg 49%
13:00 +10°C° 0 mm 3 mps 711 mmHg 51%
14:00 +10°C° 0 mm 3 mps 711 mmHg 53%
15:00 +10°C° 0 mm 3 mps 710 mmHg 54%
16:00 +9°C° 0 mm 3 mps 710 mmHg 61%
17:00 +7°C° 0 mm 3 mps 710 mmHg 68%
18:00 +6°C° 0 mm 2 mps 709 mmHg 75%
19:00 +5°C° 0 mm 3 mps 709 mmHg 76%
20:00 +5°C° 0 mm 3 mps 709 mmHg 77%
21:00 +7°C° 0 mm 3 mps 709 mmHg 78%
22:00 +7°C° 0.4 mm 3 mps 709 mmHg 80%
23:00 +7°C° 0.4 mm 3 mps 709 mmHg 81%

2 December, Wednesday

Time Temperature Precipitation Wind Pressure Humidity
00:00 +7°C° 0.4 mm 3 mps 708 mmHg 83%
01:00 +7°C° 0.2 mm 3 mps 708 mmHg 84%
02:00 +5°C° 0.2 mm 3 mps 708 mmHg 86%
03:00 +5°C° 0.2 mm 4 mps 708 mmHg 87%
04:00 +4°C° 0 mm 4 mps 708 mmHg 87%
05:00 +3°C° 0 mm 3 mps 707 mmHg 87%
06:00 +2°C° 0 mm 3 mps 707 mmHg 87%
07:00 +1°C° 0 mm 4 mps 708 mmHg 84%
08:00 +3°C° 0 mm 4 mps 708 mmHg 80%
09:00 +3°C° 0 mm 4 mps 708 mmHg 76%
10:00 +3°C° 0.1 mm 4 mps 708 mmHg 76%
11:00 +3°C° 0.1 mm 5 mps 708 mmHg 75%
12:00 +3°C° 0.1 mm 5 mps 708 mmHg 75%
13:00 +3°C° 0.1 mm 5 mps 708 mmHg 75%
14:00 +3°C° 0.1 mm 5 mps 708 mmHg 76%
15:00 +3°C° 0.1 mm 5 mps 707 mmHg 77%
16:00 +3°C° 0.1 mm 4 mps 708 mmHg 81%
17:00 +3°C° 0.1 mm 4 mps 708 mmHg 84%
18:00 +2°C° 0.1 mm 3 mps 708 mmHg 87%
19:00 +2°C° 0 mm 3 mps 708 mmHg 87%
20:00 +2°C° 0 mm 3 mps 708 mmHg 88%
21:00 +2°C° 0 mm 3 mps 708 mmHg 88%
22:00 +2°C° 0 mm 3 mps 708 mmHg 88%
23:00 +2°C° 0 mm 3 mps 708 mmHg 88%

3 December, Thursday

Time Temperature Precipitation Wind Pressure Humidity
00:00 +2°C° 0 mm 3 mps 707 mmHg 88%
01:00 +2°C° 0 mm 3 mps 707 mmHg 89%
02:00 +2°C° 0 mm 3 mps 707 mmHg 89%
03:00 +1°C° 0 mm 3 mps 706 mmHg 89%
04:00 +1°C° 0 mm 3 mps 706 mmHg 89%
05:00 +1°C° 0 mm 3 mps 705 mmHg 89%
06:00 +1°C° 0 mm 2 mps 704 mmHg 89%
07:00 +2°C° 0 mm 2 mps 704 mmHg 86%
08:00 +3°C° 0 mm 2 mps 703 mmHg 82%
09:00 +3°C° 0 mm 2 mps 703 mmHg 78%
10:00 +5°C° 0 mm 2 mps 703 mmHg 72%
11:00 +6°C° 0 mm 2 mps 702 mmHg 67%
12:00 +8°C° 0 mm 2 mps 701 mmHg 61%
13:00 +8°C° 0 mm 2 mps 701 mmHg 60%
14:00 +8°C° 0 mm 2 mps 700 mmHg 59%
15:00 +8°C° 0 mm 2 mps 699 mmHg 58%
16:00 +7°C° 0 mm 2 mps 698 mmHg 63%
17:00 +6°C° 0 mm 1 mps 698 mmHg 67%
18:00 +5°C° 0 mm 1 mps 697 mmHg 72%
19:00 +5°C° 0 mm 1 mps 697 mmHg 73%
20:00 +4°C° 0 mm 1 mps 696 mmHg 74%
21:00 +4°C° 0 mm 1 mps 696 mmHg 75%
22:00 +3°C° 0 mm 2 mps 695 mmHg 76%
23:00 +3°C° 0 mm 2 mps 694 mmHg 77%

4 December, Friday

Time Temperature Precipitation Wind Pressure Humidity
00:00 +2°C° 0 mm 2 mps 694 mmHg 79%
01:00 +3°C° 0 mm 2 mps 693 mmHg 78%
02:00 +3°C° 0 mm 2 mps 693 mmHg 78%
03:00 +4°C° 0 mm 1 mps 693 mmHg 77%
04:00 +4°C° 0.4 mm 1 mps 692 mmHg 80%
05:00 +4°C° 0.4 mm 1 mps 692 mmHg 83%
06:00 +4°C° 0.4 mm 1 mps 692 mmHg 86%
07:00 +4°C° 0.5 mm 1 mps 692 mmHg 85%
08:00 +4°C° 0.5 mm 1 mps 692 mmHg 84%
09:00 +4°C° 0.5 mm 1 mps 693 mmHg 83%
10:00 +3°C° 0.2 mm 3 mps 693 mmHg 75%
11:00 +4°C° 0.2 mm 4 mps 692 mmHg 67%
12:00 +4°C° 0.2 mm 6 mps 692 mmHg 59%
13:00 +4°C° 0.1 mm 6 mps 692 mmHg 57%
14:00 +4°C° 0.1 mm 6 mps 692 mmHg 55%
15:00 +4°C° 0.1 mm 6 mps 691 mmHg 53%
16:00 +4°C° 0 mm 4 mps 691 mmHg 58%
17:00 +2°C° 0 mm 3 mps 691 mmHg 62%
18:00 +2°C° 0 mm 2 mps 692 mmHg 67%
19:00 +2°C° 0 mm 2 mps 692 mmHg 69%
20:00 +1°C° 0 mm 2 mps 692 mmHg 70%
21:00 +1°C° 0 mm 2 mps 692 mmHg 72%
22:00 0°C° 0.2 mm 3 mps 693 mmHg 74%
23:00 0°C° 0.2 mm 3 mps 693 mmHg 77%
Show more